Date String (YYYY-MM-DD hh:mm:ss) UTC,Instrument flags,Ambient pressure (hPa),Sample flow (lpm),Bypass flow (lpm),Sample temperature (°C),Ambient temperature (°C),ASC tube jacket temperature (°C),LED temperature (°C),Box temperature (°C),Sample RH (%),Span deviation,Mass concentration (μg/m³),Mass concentration (μg/m³),Mass concentration (μg/m³)
DateTimeUTC,F1_M11,P_M11,Q1_M11,Q2_M11,T1_M11,T2_M11,T3_M11,T4_M11,T5_M11,U1_M11,ZSPAN_M11,X0_M11,X2_M11,X1_M11
2022-08-03 20:00:00,,0828.4,5.01,0.00,29.3,27.3,00.0,38.1,31.1,29.0,0002.3,0015.33,0009.03,0008.20
2022-08-03 20:01:00,,0828.5,5.00,0.00,29.3,27.5,00.0,38.1,31.2,28.9,0002.2,0014.94,0009.04,0008.21
2022-08-03 20:02:00,,0828.6,4.99,0.00,29.3,27.7,00.0,38.1,31.2,28.8,0001.7,0014.87,0009.06,0008.21
2022-08-03 20:03:00,,0828.9,4.99,0.00,29.4,27.9,00.0,38.1,31.3,28.6,0001.9,0014.86,0009.06,0008.23
2022-08-03 20:04:00,,0829.1,4.99,0.00,29.4,28.0,00.0,38.2,31.4,28.9,0002.4,0014.58,0009.08,0008.26
2022-08-03 20:05:00,,0828.9,5.00,0.00,29.4,28.2,00.0,38.2,31.4,28.9,0002.6,0014.74,0009.13,0008.26
2022-08-03 20:06:00,,0828.8,5.01,0.00,29.5,28.4,00.0,38.2,31.5,28.7,0002.5,0014.43,0009.20,0008.27
2022-08-03 20:07:00,,0829.1,4.99,0.00,29.5,28.4,00.0,38.2,31.5,28.5,0002.4,0014.73,0009.23,0008.28
2022-08-03 20:08:00,,0829.3,4.99,0.00,29.5,27.9,00.0,38.2,31.4,28.4,0002.3,0015.08,0009.29,0008.29
2022-08-03 20:09:00,,0828.7,5.00,0.00,29.5,27.3,00.0,38.2,31.2,29.2,0002.4,0015.45,0009.34,0008.30
2022-08-03 20:10:00,,0828.7,5.00,0.00,29.4,27.1,00.0,38.2,31.2,28.9,0002.3,0015.57,0009.35,0008.31
2022-08-03 20:11:00,,0828.7,5.01,0.00,29.4,27.2,00.0,38.1,31.1,28.9,0002.1,0016.32,0009.29,0008.28
2022-08-03 20:12:00,,0828.8,5.00,0.00,29.3,27.3,00.0,38.1,31.1,28.7,0002.3,0016.27,0009.31,0008.28
2022-08-03 20:13:00,,0829.0,5.00,0.00,29.3,27.5,00.0,38.1,31.2,29.4,0002.7,0016.82,0009.34,0008.28
2022-08-03 20:14:00,,0829.2,5.01,0.00,29.3,27.7,00.0,38.1,31.2,29.6,0002.6,0017.28,0009.33,0008.26
2022-08-03 20:15:00,,0829.3,5.00,0.00,29.4,27.9,00.0,38.1,31.3,30.0,0002.1,0018.17,0009.27,0008.23
2022-08-03 20:16:00,,0829.1,5.00,0.00,29.4,28.1,00.0,38.1,31.4,31.2,0002.4,0019.02,0009.27,0008.22
2022-08-03 20:17:00,,0829.1,5.00,0.00,29.4,28.2,00.0,38.2,31.4,30.9,0002.4,0018.86,0009.18,0008.19
2022-08-03 20:18:00,,0829.0,5.00,0.00,29.5,28.4,00.0,38.2,31.5,32.3,0002.5,0018.61,0009.12,0008.16
2022-08-03 20:19:00,,0828.9,4.99,0.00,29.5,28.3,00.0,38.2,31.5,33.1,0002.5,0019.30,0009.11,0008.13
2022-08-03 20:20:00,,0829.0,5.01,0.00,29.5,27.7,00.0,38.2,31.3,32.3,0002.8,0019.00,0009.03,0008.10
2022-08-03 20:21:00,,0828.9,5.01,0.00,29.4,27.2,00.0,38.2,31.2,32.8,0002.8,0019.45,0008.97,0008.09
2022-08-03 20:22:00,,0829.3,4.99,0.00,29.4,27.1,00.0,38.1,31.2,33.0,0002.5,0018.62,0008.98,0008.09
2022-08-03 20:23:00,,0829.1,5.01,0.00,29.3,27.2,00.0,38.1,31.0,32.9,0002.3,0018.35,0008.97,0008.07
2022-08-03 20:24:00,,0829.0,4.99,0.00,29.3,27.4,00.0,38.1,31.0,34.0,0001.9,0017.82,0008.95,0008.06
2022-08-03 20:25:00,,0829.1,5.01,0.00,29.3,27.6,00.0,38.1,31.1,35.1,0001.6,0017.35,0008.94,0008.04
2022-08-03 20:26:00,,0828.7,4.99,0.00,29.4,27.8,00.0,38.1,31.3,35.8,0002.0,0016.50,0008.95,0008.03
2022-08-03 20:27:00,,0829.0,4.99,0.00,29.7,27.9,00.0,38.1,31.5,34.7,0001.9,0015.54,0008.95,0008.02
2022-08-03 20:28:00,,0829.1,5.02,0.00,30.0,28.1,00.0,38.2,31.7,34.2,0001.4,0014.92,0008.97,0008.02
2022-08-03 20:29:00,,0829.1,5.00,0.00,30.2,28.3,00.0,38.2,31.7,34.1,0001.4,0014.86,0008.97,0008.02
2022-08-03 20:30:00,,0829.0,5.00,0.00,30.2,28.4,00.0,38.3,31.7,33.8,0001.2,0014.42,0008.96,0008.01
2022-08-03 20:31:00,,0828.9,5.00,0.00,30.3,28.2,00.0,38.3,31.6,34.7,0001.2,0014.33,0008.97,0008.01
2022-08-03 20:32:00,,0829.2,5.01,0.00,30.3,27.5,00.0,38.3,31.5,35.4,0001.0,0014.42,0009.00,0007.99
2022-08-03 20:33:00,,0829.1,4.99,0.00,30.5,27.1,00.0,38.4,31.5,35.4,0001.0,0015.24,0009.03,0007.96
2022-08-03 20:34:00,,0828.9,5.02,0.00,30.7,27.1,00.0,38.4,31.6,35.3,0001.3,0015.19,0008.98,0007.93
2022-08-03 20:35:00,,0828.9,4.98,0.00,31.0,27.2,00.0,38.5,31.7,35.2,0001.1,0015.83,0008.94,0007.91
2022-08-03 20:36:00,,0828.9,5.00,0.00,31.4,27.4,00.0,38.5,31.8,34.6,0001.1,0016.12,0008.85,0007.85
2022-08-03 20:37:00,,0828.9,5.01,0.00,31.6,27.6,00.0,38.6,31.9,33.9,0000.8,0016.19,0008.77,0007.80
2022-08-03 20:38:00,,0828.9,4.99,0.00,31.8,27.8,00.0,38.7,31.9,34.0,0000.4,0016.66,0008.77,0007.77
2022-08-03 20:39:00,,0828.9,4.99,0.00,31.8,28.0,00.0,38.9,31.9,34.8,0000.7,0016.73,0008.71,0007.70
2022-08-03 20:40:00,,0828.9,5.00,0.00,31.9,28.2,00.0,39.0,32.0,34.6,0000.6,0016.90,0008.72,0007.66
2022-08-03 20:41:00,,0828.8,5.00,0.00,32.0,28.3,00.0,39.1,32.1,33.5,0000.8,0016.77,0008.70,0007.61
2022-08-03 20:42:00,,0829.0,5.00,0.00,32.0,28.5,00.0,39.3,32.1,32.6,0000.8,0016.44,0008.64,0007.58
2022-08-03 20:43:00,,0828.9,5.00,0.00,32.0,28.6,00.0,39.4,32.2,31.6,0000.8,0015.92,0008.56,0007.54
2022-08-03 20:44:00,,0828.8,4.99,0.00,32.0,28.2,00.0,39.4,32.1,32.6,0000.7,0014.69,0008.47,0007.51
2022-08-03 20:45:00,,0829.2,5.00,0.00,31.9,27.6,00.0,39.5,31.9,33.3,0000.9,0014.53,0008.46,0007.50
2022-08-03 20:46:00,,0829.3,5.00,0.00,31.8,27.3,00.0,39.5,31.9,33.3,0001.2,0014.06,0008.47,0007.49
2022-08-03 20:47:00,,0829.0,4.99,0.00,31.7,27.3,00.0,39.5,31.8,33.4,0001.1,0013.37,0008.46,0007.47
2022-08-03 20:48:00,,0828.7,5.00,0.00,31.5,27.4,00.0,39.5,31.7,32.9,0000.3,0013.44,0008.49,0007.47
2022-08-03 20:49:00,,0828.8,4.99,0.00,31.5,27.5,00.0,39.5,31.8,32.9,0000.0,0012.86,0008.46,0007.46
2022-08-03 20:50:00,,0829.0,5.00,0.00,31.4,27.7,00.0,39.5,31.9,32.8,0000.0,0012.75,0008.43,0007.46
2022-08-03 20:51:00,,0829.1,5.00,0.00,31.3,27.9,00.0,39.5,31.9,33.6,0000.0,0012.63,0008.38,0007.46
2022-08-03 20:52:00,,0829.1,5.00,0.00,31.3,28.1,00.0,39.5,32.0,32.3,0000.0,0012.80,0008.28,0007.42
2022-08-03 20:53:00,,0829.0,5.00,0.00,31.3,28.3,00.0,39.5,32.0,33.9,0000.0,0012.58,0008.22,0007.40
2022-08-03 20:54:00,,0829.0,4.99,0.00,31.2,28.4,00.0,39.5,32.1,34.9,0000.0,0012.59,0008.25,0007.40
2022-08-03 20:55:00,,0828.8,5.01,0.00,31.3,28.6,00.0,39.6,32.2,36.0,0000.0,0012.70,0008.30,0007.39
2022-08-03 20:56:00,,0829.0,5.02,0.00,31.6,28.4,00.0,39.5,32.3,33.7,0000.0,0012.49,0008.29,0007.37
2022-08-03 20:57:00,,0828.8,4.99,0.00,31.7,27.7,00.0,39.5,32.1,32.1,0000.0,0012.42,0008.21,0007.30
2022-08-03 20:58:00,,0828.9,5.00,0.00,31.7,27.3,00.0,39.5,32.0,31.4,0000.0,0012.41,0008.16,0007.26
2022-08-03 20:59:00,,0829.0,5.01,0.00,31.6,27.3,00.0,39.5,31.9,31.5,0000.1,0012.30,0008.07,0007.20
